Location: Newark
(45.9167°N, 11.2667°E)
Time: 14:53:28
(UTC+00:00)

X-37B - Visible Passes

Search period start: 18 September 2020 00:00
Search period end: 28 September 2020 00:00
Orbit: 386 x 387 km, 45.0° (Epoch: 15 September)

Date Brightness Start Highest point End Pass type
(mag) Time Alt. Az. Time Alt. Az. Time Alt. Az.
18 Sep 0.5 03:25:04 49° WSW 03:25:47 77° S 03:28:58 10° E visible
19 Sep 3.0 02:29:10 21° E 02:29:10 21° E 02:30:24 10° E visible
19 Sep 0.6 04:01:27 17° W 04:03:48 67° S 04:06:57 10° ESE visible
20 Sep 0.8 03:05:36 65° SE 03:05:36 65° SE 03:08:25 10° E visible
21 Sep 4.0 02:09:48 10° E 02:09:48 10° E 02:09:51 10° E visible
21 Sep 0.8 03:42:05 32° WSW 03:43:13 52° SSW 03:46:20 10° ESE visible
22 Sep 2.6 02:46:23 25° ESE 02:46:23 25° ESE 02:47:51 10° ESE visible
22 Sep 2.0 04:18:40 12° W 04:21:01 25° SSW 04:23:41 10° SSE visible
23 Sep 1.5 03:23:04 34° S 03:23:04 34° S 03:25:34 10° SE visible
24 Sep 2.5 03:59:54 16° SW 04:00:17 16° SSW 04:02:19 10° S visible
